Vorticity
nan nan nan nan nan nan nan nan nan nan nan nan nan nan nan nan nan nan nan nan nan nan nan nan nan nan nan nan nan nan nan nan nan nan nan nan nan nan nan nan nan nan nan nan
nan 10 2 5 10 12 1 14 11 5 12 4 6 13 10 9 10 8 7 7 7 9 5 6 10 7 5 7 6 7 7 5 5 4 7 9 8 9 9 5 8 12 6 nan
nan 7 9 -1 10 31 9 6 9 5 8 7 10 8 7 8 9 9 8 8 7 9 8 8 6 7 8 8 6 7 9 8 7 2 7 6 8 7 11 10 12 11 6 nan
nan 3 5 11 21 10 5 7 17 13 10 2 9 17 6 14 6 9 8 9 9 10 6 7 11 6 8 7 7 7 6 7 7 7 7 7 6 5 10 8 11 15 9 nan
nan 24 -5 7 12 5 6 5 19 14 5 7 9 11 5 7 16 16 10 9 9 10 11 5 8 12 6 6 7 7 8 6 7 8 7 6 6 8 10 9 7 10 9 nan
nan 6 11 6 4 1 17 16 10 8 3 15 17 -2 10 14 17 11 9 7 9 9 8 9 1 1 11 20 13 9 9 7 8 8 8 3 6 8 6 10 8 5 9 nan
nan -7 14 9 5 10 10 10 2 7 9 15 14 9 23 17 21 14 7 13 12 5 4 13 9 3 7 5 11 19 11 7 7 7 7 9 5 7 8 6 9 7 9 nan
nan 12 12 8 5 2 5 9 3 4 5 19 -2 -2 14 19 19 18 30 15 9 13 5 9 6 5 12 9 7 11 10 8 8 7 8 8 9 7 9 6 9 6 7 nan
nan 7 8 10 15 12 -5 5 8 4 3 1 -0 10 11 8 9 15 21 9 2 2 17 15 11 10 9 7 9 6 10 8 9 7 8 8 9 8 6 8 8 6 9 nan
nan 9 10 9 7 9 2 5 17 4 14 11 18 12 3 5 9 18 10 12 14 8 2 3 13 15 9 9 6 9 8 6 7 8 9 8 8 7 5 8 10 8 9 nan
nan 3 13 8 6 13 13 5 3 6 10 16 9 10 21 9 11 12 10 13 8 22 16 5 11 10 9 9 10 10 7 9 9 10 10 9 10 8 7 7 7 7 7 nan
nan 4 23 15 7 10 6 7 8 11 6 11 14 11 12 11 6 8 11 11 8 7 11 13 17 10 10 11 12 12 12 12 11 10 9 10 9 9 8 8 7 8 8 nan
nan 17 8 17 19 7 8 14 9 5 9 11 17 15 6 10 10 9 9 9 9 8 8 12 11 11 12 8 6 17 16 11 13 12 10 9 8 8 8 9 10 8 9 nan
nan 16 5 11 6 5 13 15 12 11 14 9 14 14 5 10 9 7 8 9 10 9 9 11 10 10 11 12 11 9 12 11 9 13 10 9 11 10 10 11 13 12 11 nan
nan -0 8 12 5 8 9 11 13 10 5 20 11 4 9 4 9 8 8 9 8 8 10 10 9 9 8 9 11 14 12 10 12 8 9 14 11 8 13 11 11 16 13 nan
nan 10 10 7 14 8 16 5 -2 8 23 26 8 -11 1 16 22 8 6 7 8 9 9 10 10 8 10 11 9 10 10 12 17 16 11 10 10 10 10 13 12 12 13 nan
nan 7 9 14 18 20 22 12 14 14 27 13 9 3 2 16 16 9 7 7 7 6 6 7 8 9 10 9 10 12 11 12 14 10 11 14 14 13 10 10 11 10 12 nan
nan 4 10 5 4 14 13 16 9 29 20 11 19 17 4 1 12 9 8 7 7 8 9 10 10 8 5 8 10 10 11 11 10 9 10 10 8 9 10 11 9 8 7 nan
nan -1 2 16 9 11 14 -5 7 11 16 14 14 7 -7 15 8 8 10 9 7 8 9 8 8 9 11 10 8 9 8 9 12 12 12 11 9 8 9 8 8 10 9 nan
nan 10 6 5 6 12 15 8 12 13 -5 -7 8 31 20 15 0 12 12 9 8 7 9 12 12 8 7 9 10 9 10 12 9 9 9 10 10 10 10 12 12 10 11 nan
nan 9 10 13 4 11 10 9 13 19 16 9 8 5 20 17 16 18 9 8 8 9 6 6 10 12 9 9 11 10 12 8 9 10 10 9 10 9 10 9 8 9 10 nan
nan 10 11 5 17 15 5 12 16 28 23 9 7 -3 22 16 19 11 8 7 7 8 9 11 10 7 10 9 9 10 9 8 8 9 9 9 9 9 9 8 9 9 11 nan
nan 14 16 11 16 16 13 12 5 12 25 24 11 10 11 4 8 8 9 8 7 5 7 11 12 9 8 9 11 12 8 9 9 10 9 7 8 11 11 10 11 13 13 nan
nan 8 16 21 11 4 6 9 16 14 8 11 8 24 18 11 9 6 6 7 7 9 8 7 10 9 9 10 10 11 10 8 8 8 9 9 7 7 8 10 12 12 12 nan
nan 15 6 12 9 7 9 10 11 10 5 13 19 16 15 12 9 9 10 10 10 9 11 10 8 10 8 6 10 10 12 9 9 7 9 11 11 10 9 8 9 14 14 nan
nan nan nan nan nan nan nan nan nan nan nan nan nan nan nan nan nan nan nan nan nan nan nan nan nan nan nan nan nan nan nan nan nan nan nan nan nan nan nan nan nan nan nan nan
CAPE
516 98 162 66 193 111 164 132 287 329 225 442 764 685 386 140 194 231 253 212 196 184 190 402 384 373 507 524 928 1440 1511 1564 2534 2806 2107 1570 1272 2102 2490 2015 1445 3430 3167 3262
328 4 6 128 133 123 22 99 327 185 273 368 760 758 536 181 113 240 297 414 361 274 211 435 407 362 276 442 1340 1755 1881 2374 2596 2424 1858 1931 2252 2174 2365 580 772 3151 2824 2506
227 143 100 162 160 23 16 16 65 293 186 199 339 877 819 470 194 123 153 187 355 194 228 369 558 560 535 1064 1226 1793 2196 3129 3020 2935 2284 3404 3333 3191 2329 2878 2724 2969 3406 3043
198 204 92 98 181 6 19 2 64 96 146 212 263 362 299 774 639 195 137 132 122 272 164 135 436 451 610 1315 1459 2303 2704 3037 2934 3358 3005 2858 3282 2815 1267 2183 1597 2444 3550 3181
153 264 218 279 9 28 60 10 147 205 1 0 53 124 13 0 292 640 208 139 106 300 334 193 209 224 285 906 1460 1965 2730 3151 3447 3322 3735 3645 3328 2336 1780 3302 2457 3592 2629 3580
47 23 273 84 47 1 3 90 84 13 38 20 122 0 71 26 176 960 568 244 172 195 269 512 431 530 354 477 867 1423 2845 3481 3604 4149 3844 3893 3907 3252 3234 2994 1368 1784 931 2760
33 100 159 84 62 48 197 116 40 10 205 50 37 96 291 309 531 1000 803 756 492 193 147 296 700 525 738 553 223 1727 3145 3418 3634 3481 3687 3769 3867 4435 3756 3116 3148 3367 1248 2214
130 165 122 71 63 83 51 11 10 0 0 92 197 203 314 221 465 204 531 558 421 433 262 159 195 476 749 907 905 1884 3256 3417 3669 3694 3813 4242 4076 3517 3054 3282 2317 3327 734 1879
29 209 101 62 116 49 19 102 1 8 75 222 267 273 471 439 410 287 797 589 335 308 661 384 301 336 817 594 936 1376 2797 3100 3355 3175 4014 4374 4316 3979 3266 3495 3406 2364 3324 1118
5 117 7 115 118 34 0 1 47 99 130 201 52 0 798 846 712 370 850 349 153 297 309 10 178 650 430 433 508 795 1802 2300 2754 2924 3577 3819 3944 4069 3817 4388 4046 3472 3291 3397
19 28 20 0 90 28 12 0 4 9 21 293 328 173 904 1093 946 742 673 735 695 745 606 425 881 825 761 722 703 446 864 1706 2750 2820 3427 3636 3588 3769 3899 3551 3766 3431 3450 3859
0 17 11 2 44 2 23 2 0 22 45 690 507 872 965 1012 1046 997 1013 1062 952 983 901 911 963 983 1350 1396 1113 1600 408 1111 2640 3457 4363 3877 3892 3694 3392 3399 3254 3556 3447 3627
0 59 3 91 23 0 0 0 0 0 32 506 507 785 928 966 1131 1353 1625 1768 1973 1870 1861 1503 1301 1505 1650 1687 3198 3805 3382 2497 3276 3796 3660 3373 3631 3620 3253 3173 3084 3101 3574 3716
2 98 0 54 71 166 78 0 0 0 266 123 218 725 1138 1497 1778 1774 1662 1817 2080 2600 2753 2657 2866 3492 3603 3742 4005 3943 3506 2079 2742 2861 3015 3263 3639 3422 3044 2895 3711 3062 3348 3655
28 98 95 1 12 71 91 50 1 37 148 198 121 414 631 1644 1297 892 1087 1286 1335 1351 1535 2330 2565 2750 2814 3162 3581 3465 2696 3518 3043 3581 4026 4283 4253 4138 4488 4575 4517 4402 4430 3668
37 104 199 64 0 36 52 5 2 20 50 261 177 272 331 4 992 1015 1051 815 779 895 959 1298 1931 2287 2537 2850 3146 3010 3119 3648 3606 4080 3511 3886 3334 4122 4371 4551 4391 3933 4105 3778
23 56 116 44 47 213 59 15 80 31 386 381 503 260 84 402 1163 1081 822 875 989 1067 1100 1190 1358 1549 1940 1948 2724 2744 2845 3726 3586 3588 4048 4037 4384 4147 4245 4410 3911 3725 3046 2098
143 23 3 43 301 244 244 269 418 297 344 339 364 43 0 348 1160 927 904 1024 1140 1002 687 835 639 1050 1171 1191 1163 2310 2801 3532 2790 2828 2794 3350 3581 3307 3229 3024 2444 2464 2507 1084
101 83 313 352 211 190 204 289 427 617 390 34 66 0 84 504 1004 1078 1001 1152 1209 947 521 419 419 511 1440 1162 1852 1922 1550 2578 3097 2975 2894 2913 3019 2939 2827 2685 2633 2621 2895 2959
96 118 183 185 317 247 175 45 370 356 378 71 186 377 531 752 974 1252 1311 1057 1026 662 445 470 683 721 577 1380 1031 1558 1546 2002 2459 2788 2797 2835 2767 2694 2882 2917 2750 2590 2674 2726
218 181 181 213 128 160 148 155 29 55 381 80 180 135 144 1110 1472 1649 1556 1315 933 754 420 372 543 724 424 832 857 1770 1571 1784 2316 2525 2779 2899 2604 2740 2658 2634 2882 2700 2761 2842
271 189 149 139 426 197 257 107 225 911 751 159 0 4 89 1797 1504 1512 1290 1241 979 678 216 446 989 1064 846 979 1868 2125 2444 2591 2809 2923 3111 2843 2651 2507 2492 2905 3259 3211 3081 2626
263 66 178 139 846 715 355 534 406 945 1094 860 5 389 1414 1479 1468 1414 1219 1089 880 630 462 499 763 1173 1543 1723 2249 2692 2622 3000 2912 3055 2804 2392 2756 2106 2402 3017 3080 2603 2706 2014
114 734 906 544 786 461 367 216 193 287 908 1088 1300 1463 1294 1638 1670 1447 1084 956 898 772 762 775 1217 1621 2161 2488 2281 3122 3006 2888 2898 2811 2602 2765 2687 2464 2572 2238 1580 1673 1168 1254
922 482 496 537 844 576 237 287 299 295 456 977 1165 1214 1184 1498 1663 1190 1185 1463 1075 1287 1262 1442 1984 2128 2628 2760 2191 3064 3438 3170 3031 2794 2740 2683 2340 2461 3084 2693 1598 1988 1167 517
513 659 125 306 1120 948 348 164 323 178 100 106 289 502 685 731 911 848 935 905 1637 1796 2120 2197 2119 2612 1965 2175 2128 2446 3484 3232 3260 2840 2014 1678 1905 1988 2209 2242 1447 0 0 1